Voltar ao catálogo

STARLINK-34816

AtivoComunicaçõesVLEO
NORAD 65467·PAYLOAD·🇺🇸 United States

Lançado Sep 3, 2025 de Cape Canaveral Space Force Station

Loading…

Próximas Passagens (próximas 24 horas)

TLE

AtualizadoSource: CelesTrak SupGP

Época: Sep 14, 2026, 22:59 UTC

1 65467C 25195K   26257.95812500  .00026254  00000+0  84439-3 0  2578
2 65467  53.1580  98.7229 0001309  85.3764   4.2508 15.31683464    16

Acompanhe STARLINK-34816 em tempo real com AllMySat

Download on the App Store